Regional Weather Roundup
Issued by NWS State College, PA

Home | Current Version | Previous Version | Graphics & Text | Print | Product List | Glossary Off
Versions: 1 2 3 4 5 6 7 8 9 10 11 12 13 14 15 16 17 18 19 20 21 22 23 24 25 26 27 28 29 30 31 32 33 34 35 36 37 38 39 40 41 42 43 44 45 46 47 48 49 50

000
ASUS41 KCTP 200010
RWRCTP

REGIONAL WEATHER ROUNDUP
NATIONAL WEATHER SERVICE STATE COLLEGE PA
800 PM EDT TUE SEP 19 2017

Note: "fair" indicates few or no clouds below 12,000 feet with no
significant weather and/or obstructions to visibility.

* = STATION THAT DOES NOT REPORT PRECIPITATION /E.G. RAIN...SNOW...ETC/
    THUNDER OR FOG.

PAZ002>004-007>009-013>016-020>023-029>032-200100-
WESTERN PENNSYLVANIA

CITY           SKY/WX    TMP DP  RH WIND       PRES   REMARKS
ERIE           CLOUDY    72  63  73 NE6       29.98R
MEADVILLE      CLEAR     71  67  87 N5        30.00R
FRANKLIN*      CLEAR     70  62  76 NE3       30.01R
NEW CASTLE     FAIR      71  66  84 CALM      29.99R
BEAVER COUNTY  PTCLDY    75  61  60 NW5       29.98S
BUTLER*        CLEAR     69  63  81 CALM      29.99R
PITTSBURGH INT PTCLDY    75  62  64 E5        29.97R
PITTSBURGH     CLEAR     74  59  59 E5        29.97R
INDIANA*       CLEAR     68  64  88 CALM      30.01S
LATROBE        CLEAR     70  64  83 CALM      29.98S
WASHINGTON CO* CLEAR     66  63  88 CALM      29.97S
$$

PAZ004>006-010>012-017>019-024>028-033>037-041-042-045-046-049>053-200100-
CENTRAL PENNSYLVANIA

CITY           SKY/WX    TMP DP  RH WIND       PRES   REMARKS
BRADFORD       CLEAR     63  59  87 CALM      30.04R
DUBOIS         CLEAR     68  54  60 CALM      30.01S
CLEARFIELD     CLEAR     68  62  81 N6        30.01R
JOHNSTOWN      CLEAR     69  61  75 E5        30.02S
ALTOONA        CLEAR     66  62  87 E3        30.00S
STATE COLLEGE  PTCLDY    70  59  68 CALM      29.99S
WILLIAMSPORT   CLEAR     68  64  87 W3        29.94S
SELINSGROVE    CLEAR     64  64 100 CALM      29.95S
FT INDIANTOWN  CLEAR     74  65  73 NW12      29.92S
CAPITAL CITY   NOT AVBL
HARRISBURG     PTCLDY    72  67  84 NW7       29.92S
YORK           CLEAR     69  66  90 NW6       29.93S
$$

PAZ038>040-043-044-047-048-054-055-060>062-067>071-200100-
EASTERN PENNSYLVANIA

CITY           SKY/WX    TMP DP  RH WIND       PRES   REMARKS
SCRANTON       CLEAR     73  63  70 E3        29.96S
MOUNT POCONO   MOCLDY    68  58  70 NE10      30.00S
ALLENTOWN      CLOUDY    76  62  62 NE10      29.92S
QUAKERTOWN*    MOCLDY    75  63  64 NE8G21    29.92S
READING        CLOUDY    77  66  68 CALM      29.90S
LANCASTER      PTCLDY    75  68  78 NW8       29.91S
COATESVILLE    CLOUDY    75  63  64 N7G17     29.93R
POTTSTOWN      CLOUDY    75  62  64 N9        29.91F
BLUE BELL      CLOUDY    73  63  68 NE8G17    29.90S
DOYLESTOWN     NOT AVBL
WILLOW GROVE   NOT AVBL
NORTH PHILA    CLOUDY    74  65  73 NE16G23   29.89S
PHILADELPHIA   CLOUDY    74  66  76 N10       29.87S
$$



USA.gov is the U.S. government's official web portal to all federal, state and local government web resources and services.